Weather History for Jordan, MT

Change the Weather History Date:

Thursday, February 28, 2013

  Actual Average Record
Temperature  
Mean Temperature 32 °F 27 °F  
Max Temperature 47 °F 39 °F 69 °F (1932)
Min Temperature 17 °F 14 °F -35 °F (1962)
Degree Days  
Heating Degree Days 33 38  
Month to date heating degree days 967 1189  
Since 1 July heating degree days 5458 6118  
Cooling Degree Days 0 0  
Month to date cooling degree days 0 0  
Year to date cooling degree days 0 0  
Moisture  
Dew Point 18 °F    
Average Humidity 64    
Maximum Humidity 92    
Minimum Humidity 36    
Precipitation  
Precipitation 0.00 in 0.01 in 0.25 in (1906)
Month to date precipitation 0.07 0.25  
Year to date precipitation 0.40 0.48  
Snow  
Snow 0.00 in - - ()
Month to date snowfall 0.0  
Since 1 July snowfall 0.0  
Snow Depth 0.00 in    
Sea Level Pressure  
Sea Level Pressure 30.26 in    
Wind  
Wind Speed 8 mph (WNW)    
Max Wind Speed 23 mph    
Max Gust Speed 29 mph    
T = Trace of Precipitation, MM = Missing Value Source: NWS Daily Summary

Daily Weather History Graph

Daily Weather History Graph

Search for Another Location

Airport:

Trip Planner

Search our weather history database for the weather conditions in past years. The results will help you decide how hot, cold, wet, or windy it might be!

Date:

Astronomy

Feb. 28, 2013 Rise Set
Actual Time 6:49 AM MST 5:51 PM MST
Civil Twilight 6:18 AM MST 6:22 PM MST
Nautical Twilight 5:43 AM MST 6:58 PM MST
Astronomical Twilight 5:07 AM MST 7:33 PM MST
Moon 9:40 PM MST (2/28) 7:44 AM MST (2/28)
Length of Visible Light 12h 04m
Length of Day
11h 02m
Waning Gibbous, 90% of the Moon is Illuminated
Feb 28
Waning Gibbous
Mar 4
Last Quarter
Mar 11
New
Mar 19
First Quarter
Mar 27
Full

Hourly Weather History & Observations

Time (MST) Temp. Windchill Dew Point Humidity Pressure Visibility Wind Dir Wind Speed Gust Speed Precip Events Conditions
12:48 AM 24.1 °F - 19.9 °F 84% 30.25 in - Calm Calm - N/A   Unknown
1:48 AM 23.0 °F - 19.0 °F 85% 30.23 in - Calm Calm - N/A   Unknown
2:48 AM 19.0 °F - 15.1 °F 85% 30.24 in - Calm Calm - N/A   Unknown
3:48 AM 18.0 °F 9.8 °F 15.1 °F 88% 30.25 in - West 5.8 mph - N/A   Unknown
4:48 AM 18.0 °F 9.8 °F 15.1 °F 88% 30.25 in - WNW 5.8 mph - N/A   Unknown
5:48 AM 19.9 °F 10.1 °F 16.0 °F 85% 30.26 in - WNW 8.1 mph - N/A   Unknown
6:48 AM 19.9 °F 10.1 °F 16.0 °F 85% 30.26 in - West 8.1 mph - N/A   Unknown
7:48 AM 26.1 °F 17.6 °F 19.9 °F 78% 30.25 in - West 8.1 mph - N/A   Unknown
8:48 AM 30.9 °F 24.3 °F 23.0 °F 72% 30.24 in - West 6.9 mph - N/A   Unknown
9:48 AM 37.0 °F 28.9 °F 21.0 °F 52% 30.24 in - West 12.7 mph - N/A   Unknown
10:48 AM 42.1 °F 35.2 °F 19.0 °F 40% 30.23 in - West 12.7 mph - N/A   Unknown
11:48 AM 41.0 °F 34.3 °F 19.0 °F 41% 30.23 in - West 11.5 mph - N/A   Unknown
12:48 PM 43.0 °F 34.8 °F 17.1 °F 35% 30.21 in - NW 18.4 mph 24.2 mph N/A   Unknown
1:48 PM 43.0 °F 35.4 °F 19.0 °F 38% 30.21 in - WNW 16.1 mph - N/A   Unknown
2:48 PM 45.0 °F 37.6 °F 19.9 °F 37% 30.21 in - NW 17.3 mph 21.9 mph N/A   Unknown
3:48 PM 45.0 °F 38.5 °F 21.9 °F 40% 30.23 in - NW 13.8 mph - N/A   Unknown
4:48 PM 41.0 °F 32.2 °F 19.0 °F 41% 30.25 in - NNW 18.4 mph 26.5 mph N/A   Unknown
5:48 PM 37.0 °F 29.3 °F 19.0 °F 48% 30.28 in - NW 11.5 mph - N/A   Unknown
6:48 PM 36.0 °F 27.1 °F 18.0 °F 48% 30.29 in - NNW 13.8 mph - N/A   Unknown
7:48 PM 26.1 °F 20.5 °F 18.0 °F 71% 30.32 in - NNW 4.6 mph - N/A   Unknown
8:48 PM 23.0 °F - 17.1 °F 78% 30.33 in - Calm Calm - N/A   Unknown
9:48 PM 24.1 °F 18.2 °F 19.0 °F 81% 30.32 in - WNW 4.6 mph - N/A   Unknown
10:48 PM 21.0 °F 16.2 °F 17.1 °F 85% 30.32 in - West 3.5 mph - N/A   Unknown
11:48 PM 19.0 °F - 15.1 °F 85% 30.32 in - Calm Calm - N/A   Unknown